Zurück zum Katalog

STARLINK-32684

AktivKommunikationVLEO
NORAD 62194·PAYLOAD·🇺🇸 United States

Gestartet Dec 4, 2024 von Cape Canaveral Space Force Station

Loading…

Nächste Überflüge (nächste 24 Stunden)

TLE

AktuellSource: CelesTrak SupGP

Epoche: Sep 14, 2026, 14:49 UTC

1 62194C 24229C   26257.61784722  .00026118  00000+0  94598-3 0  2572
2 62194  43.0013 283.4771 0001391 274.4022 266.9371 15.27566012    12

Verfolge STARLINK-32684 in Echtzeit mit AllMySat

Download on the App Store